www.pogodaiklimat.ru

Погода и климат >> Архив погоды >> Аргентина >> Сан-Рамон-де-ла-Нуэва-Оран


ПОГОДА в Сан-Рамон-де-ла-Нуэва-Оране

  • Прогноз погоды в Сан-Рамон-де-ла-Нуэва-Оране
  • Монитор погоды в Сан-Рамон-де-ла-Нуэва-Оране

АРХИВ ПОГОДЫ в Сан-Рамон-де-ла-Нуэва-Оране

Время (UTC), дата Ветер
(напр.,м/с)
 
Видим.   Явления Облачность Т
(С)
Тd
(С)
f
(%)
Тe
(С)
Тes
(С)
Комфортность P
(гПа)
Po
(гПа)
Тmin
(С)
Tmax
(С)
R
(мм)
R24
(мм)
S
(см)
21 15.08 С 3 10 км 6/0
[Cs]
+22.7 +5.3 32 +23 +24 комфорт 1012.7 971.0
00 16.08 СВ 1 10 км 4/0
[Cs]
+15.2 +6.2 55 +16 +16 1014.5 972.2 +7.9 +24.0
03 16.08 З 3 10 км 1/0
[Cs]
+12.5 +7.4 71 +11 +11 1014.6 972.8
06 16.08 З 3 10 км 6/0
[Cs]
+10.3 +8.3 87 +8 +8 1012.5 971.0
09 16.08 З 3 10 км 3/0
[Cs]
+8.6 +7.3 92 +6 +6 1011.0 969.4
12 16.08 СЗ 3 15 км 1/0
[Cs]
+10.6 +8.2 85 +9 +11 1012.6 970.6 +8.0 +15.2
15 16.08 С 3 15 км ясно +21.8 +10.2 48 +24 +35 комфорт 1009.6 968.2
18 16.08 С 3 15 км ясно +28.0 +10.5 34 +29 +39 жарко 1004.7 963.8
21 16.08 С 1 15 км 1/0
[Cs]
+29.7 +10.9 31 +30 +31 жарко 1003.3 962.6
00 17.08 штиль 0 10 км 1/0
[Cs]
+19.4 +13.1 67 +21 +21 комфорт 1005.2 963.8 +10.6 +30.2
03 17.08 СЗ 3 10 км ясно +15.6 +12.7 83 +15 +15 1004.7 963.8
06 17.08 СЗ 1 10 км 3/0
[Cs]
+14.2 +12.4 89 +14 +14 1002.9 962.4
09 17.08 СЗ 3 10 км 4/0
[Cs]
+13.0 +11.9 93 +12 +12 1001.6 961.2
12 17.08 СЗ 4 10 км 5/0
[Cs]
+14.8 +13.0 89 +14 +15 1003.3 962.2 +12.3 +19.4
15 17.08 СЗ 3 10 км 6/0
[Cs]
+25.2 +14.4 51 +28 +38 жарко 1003.7 963.0
18 17.08 штиль 0 10 км 8/0
[Cs]
+30.6 +13.0 34 +32 +45 жарко 1001.5 961.3
21 17.08 Ю 3 10 км 8/0
[Cs]
+30.0 +13.5 36 +31 +32 жарко 1003.1 962.6
00 18.08 Ю 4 10 км ясно +20.6 +9.3 48 +22 +22 комфорт 1008.6 967.4 +14.8 +31.5
03 18.08 штиль 0 10 км ясно +17.0 +10.7 66 +17 +17 1010.9 970.1
06 18.08 ЮВ 3 10 км 5/5 600 м
[Sc]
+15.6 +11.4 76 +15 +15 1011.6 971.0
09 18.08 штиль 0 10 км ясно +12.1 +10.0 87 +12 +12 1012.9 972.0
12 18.08 СЗ 3 10 км 5/0
[Cs]
+14.2 +11.6 84 +13 +15 1016.6 975.0 +12.1 +20.6
15 18.08 С 3 10 км 8/0
[Ac und Cs]
+22.8 +11.3 48 +25 +32 комфорт 1018.0 976.8
18 18.08 Ю 4 10 км 8/0
[Ac und Cs]
+24.8 +11.1 42 +26 +31 жарко 1016.1 975.0
21 18.08 ЮВ 7 10 км 8/0
[Ac und Cs]
+23.4 +7.6 36 +24 +24 комфорт 1016.0 974.5
00 19.08 Ю 3 10 км 9/5 600 м
[Sc Ac und]
+19.6 +5.0 38 +21 +21 комфорт 1019.5 977.8 +14.2 +24.8
03 19.08 ЮВ 4 10 км 9/5 600 м
[Sc Ac und]
+18.3 +3.8 38 +18 +18 1021.9 980.6
06 19.08 Ю 3 10 км 9/5 600 м
[Sc Ac und]
+16.7 +4.6 45 +17 +17 1022.5 981.2
09 19.08 Ю 3 10 км 9/5 600 м
[Sc Ac und]
+15.0 +8.1 63 +15 +15 1022.4 980.9
12 19.08 штиль 0 5000 м мгла 4/0
[Ac und Cc]
+14.5 +8.0 65 +14 +17 1023.5 981.6 +14.0 +19.6
15 19.08 штиль 0 5000 м мгла 3/0
[Ac und]
+20.0 +5.6 39 +20 +34 опасность
простуды
1022.9 981.4
18 19.08 С 3 6000 м мгла ясно +23.5 +4.0 28 +23 +34 комфорт 1018.4 977.2
21 19.08 штиль 0 6000 м мгла 3/0
[Cs]
+23.5 +6.1 33 +24 +25 комфорт 1017.1 975.8
00 20.08 штиль 0 6000 м дым ясно +15.1 +7.8 62 +15 +15 1018.4 976.6 +14.5 +24.0
03 20.08 З 3 10 км ясно +12.1 +7.4 73 +11 +11 1020.3 978.4
06 20.08 штиль 0 10 км 9/9 600 м
[Sc]
+10.6 +7.7 82 +10 +10 1021.2 979.4
09 20.08 штиль 0 10 км 10/10 600 м
[Sc]
+10.6 +9.0 90 +10 +10 1022.0 980.2
12 20.08 З 1 4000 м дым 1/1 750 м
[Sc]
+11.3 +7.8 79 +11 +13 1024.9 982.4 +8.3 +15.1
15 20.08 ЮВ 3 8000 м дым ясно +18.3 +6.8 47 +19 +31 опасность
простуды
1025.2 983.0
18 20.08 штиль 0 10 км 1/0
[Cs]
+22.0 +5.1 33 +22 +38 комфорт 1022.3 980.4
21 20.08 ЮВ 4 10 км 6/4 600 м
[Sc Ac und]
+22.0 +4.8 33 +22 +23 комфорт 1020.9 979.0
00 21.08 штиль 0 10 км 3/3 750 м
[Sc]
+15.1 +8.5 65 +15 +15 1022.6 980.2 +11.3 +24.1
03 21.08 С 3 10 км 4/4 750 м
[Sc]
+13.2 +8.0 71 +12 +12 1023.4 981.4
06 21.08 штиль 0 10 км ясно +9.4 +7.3 87 +9 +9 1022.4 980.4
09 21.08 С 3 10 км 8/8 600 м
[Sc]
+10.2 +8.2 87 +8 +8 1021.9 980.0
12 21.08 штиль 0 10 км 8/8 600 м
[Sc]
+12.0 +8.4 79 +12 +12 1023.8 981.4 +9.4 +15.1
15 21.08 З 3 10 км 4/0
[Ac und]
+19.8 +4.7 37 +21 +29 комфорт 1023.1 981.2
18 21.08 С 4 10 км ясно +24.3 +4.1 27 +24 +32 комфорт 1017.7 976.1
21 21.08 штиль 0 10 км ясно +23.8 +5.7 31 +24 +25 комфорт 1016.2 974.6
00 22.08 ЮВ 3 10 км ясно +15.4 +8.4 63 +15 +15 1017.5 975.4 +12.0 +25.2
03 22.08 СЗ 4 10 км ясно +13.8 +7.8 67 +12 +12 1017.4 975.8
06 22.08 СЗ 4 10 км ясно +10.5 +6.7 77 +8 +8 1016.1 974.6
09 22.08 С 4 10 км ясно +9.6 +8.0 90 +7 +7 1016.8 975.2
12 22.08 С 3 12 км 9/6 600 м
[Sc Ac und]
+11.9 +8.9 82 +10 +11 1021.7 979.4 +8.6 +15.4
15 22.08 В 1 12 км 10/10 600 м
[Sc]
+16.8 +9.6 62 +18 +18 1025.4 983.2
18 22.08 СВ 3 12 км 9/9 600 м
[Sc]
+23.0 +10.0 44 +25 +26 комфорт 1023.9 982.0

 

Местоположение метеостанции Сан-Рамон-де-ла-Нуэва-Оран (Аргентина): широта -23.15 долгота -64.31 высота над уровнем моря 357 м.

В архиве по умолчанию представлена погода в Сан-Рамон-де-ла-Нуэва-Оране за последнюю неделю. Архивные данные за месяц целиком и за предыдущие месяцы, начиная с января 2011 года, Вы можете получить, выбрав интересующий диапазон дат из раскрывающегося списка и нажав кнопку "Ввод!".


*Определитесь, кто Вы:
робот инопланетянин человек

Внимание! Время в таблицах - всемирное. Для получения местного времени необходимо прибавить поправку, которая равна -3 ч.

Смотрите также архив погоды в соседних городах и на ближайших метеорологических станциях:

Погода в Бермехо (Боливия) (43 км)
Погода в Тартагале (Аргентина) (79 км)
Погода в Якуибе (Боливия) (150 км)
Погода в Сан-Сальвадор-де-Жужуе (Аргентина) (158 км)
Погода в Ла-Кьяке (Аргентина) (177 км)
Погода в Тарихе (Боливия) (182 км)
Погода в Сальте (Аргентина) (223 км)
Погода в Вилья-Монтесе (Боливия) (229 км)
Погода в Пратс-Гиле (Парагвай) (292 км)
Погода в Камири (Боливия) (360 км)

Пояснения к столбцам:

Ветер - указаны скорость ветра в м/с - средняя за 10 мин, порывы в срок и между сроками (в фигурных скобках) и направление, откуда дует ветер: С - северный, СВ - северо-восточный, В - восточный, ЮВ - юго-восточный, Ю - южный, ЮЗ - юго-западный, З - западный, СЗ - северо-западный.
Видимость - горизонтальная дальность видимости в метрах или километрах. При видимости от 1 до 10 км при отсутствии осадков обычно наблюдается дымка, при ухудшении видимости до 1 км и менее - туман. В сухую погоду видимость может ухудшаться дымом, пылью или мглою.
Явления - указаны атмосферные явления, наблюдавшиеся в срок или в последний час перед сроком; фигурными скобками обозначены явления, наблюдавшиеся между сроками (за 1-3 часа до срока); квадратными скобками обозначены град или гололедные отложения с указанием их диаметра в мм.
Облачность - указаны через наклонную черту общая и нижняя облачность в баллах и высота нижней границы облаков в метрах; квадратными скобками обозначены формы облаков: Ci - перистые, Cs - перисто-слоистые, Cc - перисто-кучевые, Ac - высококучевые, As - высокослоистые, Sc - слоисто-кучевые, Ns - слоисто-дождевые, Cu - кучевые, Cb - кучево-дождевые. Подробнее классификацию облаков см. в Атласе облаков (PDF).
T - Температура воздуха - температура, измеренная на высоте 2 м над землей.
Td - Температура точки росы - температура, при понижении до которой содержащийся в воздухе водяной пар достигнет насыщения.
f - Относительная влажность воздуха - влажноcть воздуха, измеренная на высоте 2 м над землей.
Te - Эффективная температура - температура, которую ощущает одетый по сезону человек в тени. Характеристика душности погоды. При расчете учитывается влияние влажности воздуха и скорости ветра на теплоощущения человека.
Tes - Эффективная температура на солнце - температура, которую ощущает человек, с поправкой на солнечный нагрев. Характеристика знойности погоды. Зависит от высоты солнца над горизонтом, облачности и скорости ветра. Ночью, в пасмурную погоду, а также при ветре 12 м/с и более поправка равна нулю.
P - Атмосферное давление - приведенное к уровню моря атмосферное давление.
Po - Атмосферное давление - измеренное на уровне метеостанции атмосферное давление.
Tmin - Минимальная температура - минимум температуры воздуха на высоте 2 м над землей.
Tmax - Максимальная температура - максимум температуры воздуха на высоте 2 м над землей.
R - Количество осадков - Количество выпавших осадков за период времени, мм. При наведении курсора мыши на число - период времени, за который выпало указанное количество осадков.
R24 - Количество осадков - Количество выпавших осадков за 24 часа, мм.
S - Снежный покров - Высота снежного покрова, см. При наведении курсора мыши на число - состояние снежного покрова и степень покрытия местности в баллах.